GW2922 Weather Reports


time (UTC)temp
C
wind
direction
speed
KPH
gust
KPH
rain 1hr
cm
rain 24hr
cm
rain mn
cm
humidity
%
barometer
mb
20260831140316 11 91 0.0 1.6 0.00 0.00 0.00 95 1016.5
20260831135814 11 96 0.0 3.2 0.00 0.00 0.00 95 1016.5
20260831135310 11 58 1.6 3.2 0.00 0.00 0.00 95 1016.5
20260831134805 11 326 1.6 6.4 0.00 0.00 0.00 95 1016.5
20260831134302 11 75 1.6 3.2 0.00 0.00 0.00 95 1016.9
20260831133800 11 21 1.6 9.7 0.00 0.00 0.00 95 1016.5
20260831133255 11 294 1.6 3.2 0.00 0.00 0.00 95 1016.5
20260831132750 11 29 1.6 1.6 0.00 0.00 0.00 95 1016.5
20260831132244 11 79 1.6 1.6 0.00 0.00 0.00 95 1016.9
20260831131738 11 101 0.0 11.3 0.00 0.00 0.00 95 1016.5
20260831131235 11 84 1.6 3.2 0.00 0.00 0.00 95 1016.9
20260831130730 11 187 3.2 4.8 0.00 0.00 0.00 95 1016.9
20260831130226 11 106 0.0 3.2 0.00 0.00 0.00 95 1016.9
20260831125724 11 331 6.4 9.7 0.00 0.00 0.00 95 1016.9
20260831125221 11 43 1.6 3.2 0.00 0.00 0.00 95 1016.9
20260831124715 11 86 1.6 4.8 0.00 0.00 0.00 95 1016.9
20260831124211 11 12 3.2 4.8 0.00 0.00 0.00 95 1016.9
20260831123711 11 95 0.0 4.8 0.00 0.00 0.00 94 1016.9
20260831123210 11 28 1.6 4.8 0.00 0.00 0.00 94 1017.2
20260831122709 11 27 1.6 3.2 0.00 0.00 0.00 94 1016.9
20260831122200 11 324 1.6 1.6 0.00 0.00 0.00 94 1017.2
20260831121659 12 94 1.6 9.7 0.00 0.00 0.00 94 1017.2
20260831121156 12 88 1.6 3.2 0.00 0.00 0.00 94 1016.9
20260831120651 12 31 3.2 3.2 0.00 0.00 0.00 94 1017.2
20260831120145 12 58 1.6 1.6 0.00 0.00 0.00 94 1017.2
20260831115642 12 295 1.6 4.8 0.00 0.00 0.00 94 1017.5
20260831115137 12 102 0.0 1.6 0.00 0.00 0.00 94 1017.5
20260831114636 12 75 1.6 3.2 0.00 0.00 0.00 94 1017.5
20260831114131 12 41 3.2 3.2 0.00 0.00 0.00 94 1017.5
20260831113630 12 356 3.2 4.8 0.00 0.00 0.00 94 1017.5
20260831113126 12 56 3.2 4.8 0.00 0.00 0.00 94 1017.5
20260831112624 12 59 1.6 1.6 0.00 0.00 0.00 94 1017.5
20260831112119 12 315 6.4 6.4 0.00 0.00 0.00 94 1017.9
20260831111610 12 147 1.6 1.6 0.00 0.00 0.00 93 1017.9
20260831111105 12 104 0.0 1.6 0.00 0.00 0.00 93 1017.5
20260831110600 12 300 4.8 9.7 0.00 0.00 0.00 93 1017.9
20260831110055 12 75 1.6 9.7 0.00 0.00 0.00 93 1017.9
20260831105554 12 51 1.6 4.8 0.00 0.00 0.00 93 1017.9
20260831105049 12 56 0.0 4.8 0.00 0.00 0.00 93 1017.5
20260831104546 12 322 3.2 6.4 0.00 0.00 0.00 93 1017.9
20260831104042 12 80 1.6 4.8 0.00 0.00 0.00 93 1017.9
20260831103537 12 82 1.6 4.8 0.00 0.00 0.00 93 1017.9
20260831103033 12 312 3.2 6.4 0.00 0.00 0.00 93 1017.9
20260831102532 12 307 3.2 3.2 0.00 0.00 0.00 92 1017.9
20260831102028 12 92 1.6 1.6 0.00 0.00 0.00 92 1017.9
20260831101522 12 91 1.6 4.8 0.00 0.00 0.00 92 1017.9
20260831101019 12 329 1.6 3.2 0.00 0.00 0.00 92 1017.9
20260831100514 12 350 1.6 9.7 0.00 0.00 0.00 92 1018.2
20260831100010 12 81 1.6 6.4 0.00 0.00 0.00 92 1018.2
20260831095509 12 62 1.6 3.2 0.00 0.00 0.00 92 1018.2
20260831095004 12 25 1.6 4.8 0.00 0.00 0.00 91 1018.2
20260831094500 12 109 0.0 6.4 0.00 0.00 0.00 91 1018.2
20260831093955 12 90 1.6 1.6 0.00 0.00 0.00 91 1018.2
20260831093450 12 94 3.2 3.2 0.00 0.00 0.00 91 1018.5
20260831092947 12 152 1.6 3.2 0.00 0.00 0.00 91 1018.5
20260831092442 12 79 0.0 3.2 0.00 0.00 0.00 90 1018.5
20260831091937 12 98 1.6 1.6 0.00 0.00 0.00 90 1018.5
20260831091433 12 57 1.6 3.2 0.00 0.00 0.00 90 1018.5
20260831090927 13 89 0.0 1.6 0.00 0.00 0.00 90 1018.5
20260831090424 13 297 4.8 9.7 0.00 0.00 0.00 90 1018.5
20260831085920 13 58 1.6 6.4 0.00 0.00 0.00 90 1018.5
20260831085415 13 43 1.6 6.4 0.00 0.00 0.00 89 1018.5
20260831084914 13 74 1.6 9.7 0.00 0.00 0.00 89 1018.5
20260831084410 13 75 1.6 4.8 0.00 0.00 0.00 89 1018.5
20260831083907 13 344 3.2 4.8 0.00 0.00 0.00 90 1018.5
20260831083402 13 77 1.6 3.2 0.00 0.00 0.00 89 1018.9
20260831082900 13 41 3.2 4.8 0.00 0.00 0.00 89 1018.9
20260831082400 13 99 0.0 1.6 0.00 0.00 0.00 89 1018.9
20260831081856 13 82 1.6 1.6 0.00 0.00 0.00 89 1018.9
20260831081351 13 104 0.0 1.6 0.00 0.00 0.00 89 1018.9
20260831080847 13 69 0.0 1.6 0.00 0.00 0.00 89 1019.2
20260831080342 13 357 3.2 3.2 0.00 0.00 0.00 89 1019.2
20260831075838 13 73 0.0 3.2 0.00 0.00 0.00 89 1019.2
20260831075332 13 52 1.6 1.6 0.00 0.00 0.00 89 1019.2
20260831074828 13 105 0.0 1.6 0.00 0.00 0.00 89 1019.2
20260831074327 13 18 3.2 4.8 0.00 0.00 0.00 89 1019.2
20260831073823 13 86 0.0 4.8 0.00 0.00 0.00 89 1019.2
20260831073321 13 76 0.0 1.6 0.00 0.00 0.00 89 1019.2
20260831072817 13 95 0.0 0.0 0.00 0.00 0.00 89 1019.6
20260831072313 13 92 1.6 1.6 0.00 0.00 0.00 89 1019.6
20260831071809 13 69 0.0 1.6 0.00 0.00 0.00 89 1019.6
20260831071307 13 101 0.0 1.6 0.00 0.00 0.00 89 1019.6
20260831070803 13 97 0.0 1.6 0.00 0.00 0.00 89 1019.6
20260831070302 13 98 0.0 1.6 0.00 0.00 0.00 89 1019.6
20260831065801 13 98 0.0 3.2 0.00 0.00 0.00 88 1019.6
20260831065259 13 90 0.0 1.6 0.00 0.00 0.00 88 1019.9
20260831064754 13 93 0.0 1.6 0.00 0.00 0.00 88 1019.9
20260831064249 13 100 0.0 1.6 0.00 0.00 0.00 88 1019.9
20260831063745 13 95 0.0 0.0 0.00 0.00 0.00 88 1019.9
20260831063239 13 90 0.0 3.2 0.00 0.00 0.00 88 1019.9
20260831062734 13 94 0.0 0.0 0.00 0.00 0.00 88 1020.2
20260831062229 13 91 0.0 1.6 0.00 0.00 0.00 87 1019.9
20260831061727 13 97 0.0 1.6 0.00 0.00 0.00 87 1019.9
20260831061222 13 47 3.2 3.2 0.00 0.00 0.00 87 1020.2
20260831060719 13 70 0.0 1.6 0.00 0.00 0.00 87 1020.2
20260831060218 13 91 0.0 1.6 0.00 0.00 0.00 86 1020.2
20260831055713 13 88 0.0 1.6 0.00 0.00 0.00 86 1020.2
20260831055207 13 95 1.6 1.6 0.00 0.00 0.00 86 1020.2
20260831054702 13 94 0.0 1.6 0.00 0.00 0.00 86 1020.2
20260831054201 13 82 1.6 3.2 0.00 0.00 0.00 86 1020.2
20260831053656 13 111 0.0 1.6 0.00 0.00 0.00 86 1020.2
20260831053154 13 91 0.0 1.6 0.00 0.00 0.00 86 1020.2
20260831052649 13 312 1.6 1.6 0.00 0.00 0.00 85 1020.2
20260831052148 13 103 1.6 3.2 0.00 0.00 0.00 85 1020.6
20260831051646 13 104 0.0 1.6 0.00 0.00 0.00 85 1020.6
20260831051145 14 87 1.6 3.2 0.00 0.00 0.00 85 1020.6
20260831050640 14 116 1.6 3.2 0.00 0.00 0.00 84 1020.6
20260831050139 14 102 0.0 3.2 0.00 0.00 0.00 84 1020.6
20260831045638 14 95 0.0 1.6 0.00 0.00 0.00 83 1020.6
20260831045133 14 313 0.0 3.2 0.00 0.00 0.00 83 1020.6
20260831044629 15 10 1.6 3.2 0.00 0.00 0.00 83 1020.6
20260831044124 15 102 0.0 0.0 0.00 0.00 0.00 83 1020.9
20260831043619 15 87 1.6 3.2 0.00 0.00 0.00 82 1020.9
20260831043114 15 87 0.0 3.2 0.00 0.00 0.00 82 1020.9
20260831042613 15 106 1.6 3.2 0.00 0.00 0.00 81 1020.9
20260831042103 15 316 1.6 3.2 0.00 0.00 0.00 81 1020.9
20260831041558 15 317 6.4 9.7 0.00 0.00 0.00 81 1020.9
20260831041057 15 79 0.0 1.6 0.00 0.00 0.00 80 1020.9
20260831040552 15 99 0.0 1.6 0.00 0.00 0.00 80 1020.9
20260831040051 15 96 0.0 3.2 0.00 0.00 0.00 80 1021.3
20260831035543 15 86 0.0 3.2 0.00 0.00 0.00 80 1020.9
20260831035039 15 22 1.6 4.8 0.00 0.00 0.00 80 1020.9
20260831034538 15 105 0.0 3.2 0.00 0.00 0.00 80 1020.9
20260831034034 15 94 0.0 1.6 0.00 0.00 0.00 79 1020.9
20260831033529 15 74 0.0 1.6 0.00 0.00 0.00 79 1020.9
20260831033025 15 102 0.0 1.6 0.00 0.00 0.00 79 1021.3
20260831032524 15 67 0.0 1.6 0.00 0.00 0.00 79 1020.9
20260831032020 15 102 0.0 1.6 0.00 0.00 0.00 79 1021.3
20260831031519 15 110 1.6 3.2 0.00 0.00 0.00 79 1020.9
20260831031019 16 91 0.0 3.2 0.00 0.00 0.00 78 1020.9
20260831030518 16 164 0.0 1.6 0.00 0.00 0.00 78 1020.9
20260831030017 16 115 0.0 1.6 0.00 0.00 0.00 78 1020.9
20260831025515 16 92 0.0 1.6 0.00 0.00 0.00 78 1020.9
20260831025011 16 86 1.6 3.2 0.00 0.00 0.00 78 1020.9
20260831024501 16 155 0.0 1.6 0.00 0.00 0.00 77 1020.9
20260831024000 16 108 0.0 0.0 0.00 0.00 0.00 77 1021.3
20260831023458 16 65 1.6 3.2 0.00 0.00 0.00 77 1021.3
20260831022953 16 17 3.2 6.4 0.00 0.00 0.00 77 1021.3
20260831022452 16 79 1.6 4.8 0.00 0.00 0.00 76 1021.3
20260831021948 16 345 3.2 4.8 0.00 0.00 0.00 76 1021.3
20260831021446 16 97 0.0 0.0 0.00 0.00 0.00 76 1021.3
20260831020943 16 98 1.6 4.8 0.00 0.00 0.00 75 1021.3
20260831020442 16 63 0.0 3.2 0.00 0.00 0.00 75 1021.3
20260831015937 16 79 1.6 1.6 0.00 0.00 0.00 75 1021.3
20260831015433 16 299 3.2 4.8 0.00 0.00 0.00 74 1021.6
20260831014928 17 0 3.2 6.4 0.00 0.00 0.00 73 1021.3
20260831014423 17 104 0.0 4.8 0.00 0.00 0.00 72 1021.3
20260831013919 17 57 1.6 3.2 0.00 0.00 0.00 72 1021.3
20260831013414 17 103 0.0 3.2 0.00 0.00 0.00 72 1021.3
20260831012908 17 84 0.0 1.6 0.00 0.00 0.00 71 1021.3
20260831012403 17 115 1.6 1.6 0.00 0.00 0.00 71 1021.6
20260831011858 17 88 1.6 1.6 0.00 0.00 0.00 70 1021.3
20260831011352 17 115 0.0 3.2 0.00 0.00 0.00 70 1021.6
20260831010848 17 90 1.6 3.2 0.00 0.00 0.00 70 1021.6
20260831010348 17 84 1.6 3.2 0.00 0.00 0.00 70 1021.6
20260831005844 17 352 3.2 3.2 0.00 0.00 0.00 70 1021.6
20260831005339 17 19 1.6 3.2 0.00 0.00 0.00 69 1021.6
20260831004834 17 81 1.6 3.2 0.00 0.00 0.00 70 1021.6
20260831004330 17 71 0.0 3.2 0.00 0.00 0.00 69 1021.6
20260831003826 17 164 3.2 6.4 0.00 0.00 0.00 69 1021.9
20260831003322 17 98 0.0 3.2 0.00 0.00 0.00 69 1021.6
20260831002820 17 106 0.0 1.6 0.00 0.00 0.00 69 1021.6
20260831002314 17 77 3.2 4.8 0.00 0.00 0.00 70 1021.9
20260831001810 17 73 1.6 3.2 0.00 0.00 0.00 69 1021.9
20260831001305 17 290 3.2 3.2 0.00 0.00 0.00 69 1021.9
20260831000803 17 104 0.0 11.3 0.00 0.00 0.00 68 1021.9
20260831000303 17 47 4.8 4.8 0.00 0.00 0.00 67 1021.9
20260830235801 17 323 4.8 9.7 0.00 0.00 0.00 67 1021.9
20260830235256 18 296 3.2 4.8 0.00 0.00 0.00 65 1021.9
20260830234751 18 358 1.6 4.8 0.00 0.00 0.00 63 1021.9
20260830234247 18 82 1.6 3.2 0.00 0.00 0.00 63 1021.6
20260830233743 18 77 1.6 9.7 0.00 0.00 0.00 64 1021.9
20260830233238 18 215 3.2 12.9 0.00 0.00 0.00 64 1021.6
20260830232733 18 121 0.0 6.4 0.00 0.00 0.00 63 1021.9
20260830232229 18 105 3.2 4.8 0.00 0.00 0.00 64 1021.9
20260830231726 18 45 1.6 4.8 0.00 0.00 0.00 63 1021.9
20260830231225 18 76 1.6 4.8 0.00 0.00 0.00 62 1021.9
20260830230720 18 60 3.2 4.8 0.00 0.00 0.00 60 1021.9
20260830230215 19 244 3.2 3.2 0.00 0.00 0.00 59 1021.9
20260830225709 20 98 1.6 6.4 0.00 0.00 0.00 59 1021.9
20260830225209 20 19 0.0 4.8 0.00 0.00 0.00 58 1021.9
20260830224708 22 301 4.8 6.4 0.00 0.00 0.00 52 1021.9
20260830224204 21 179 4.8 6.4 0.00 0.00 0.00 52 1021.6
20260830223701 21 105 1.6 9.7 0.00 0.00 0.00 53 1021.9
20260830223156 21 216 1.6 6.4 0.00 0.00 0.00 54 1021.9
20260830222650 20 139 1.6 3.2 0.00 0.00 0.00 55 1021.6
20260830222145 20 116 1.6 3.2 0.00 0.00 0.00 55 1021.9
20260830221636 21 77 1.6 9.7 0.00 0.00 0.00 53 1021.9
20260830221132 21 90 0.0 4.8 0.00 0.00 0.00 55 1021.9
20260830220627 21 108 3.2 6.4 0.00 0.00 0.00 53 1021.9
20260830220126 21 139 1.6 4.8 0.00 0.00 0.00 54 1022.3
20260830215625 20 121 0.0 6.4 0.00 0.00 0.00 55 1022.3
20260830215120 21 111 3.2 3.2 0.00 0.00 0.00 53 1022.3
20260830214615 21 106 1.6 3.2 0.00 0.00 0.00 52 1022.3
20260830214109 20 113 3.2 4.8 0.00 0.00 0.00 55 1022.3
20260830213609 20 105 3.2 3.2 0.00 0.00 0.00 56 1022.3
20260830213104 20 110 3.2 3.2 0.00 0.00 0.00 57 1022.3
20260830212600 20 116 3.2 6.4 0.00 0.00 0.00 58 1022.3
20260830212055 20 106 1.6 3.2 0.00 0.00 0.00 57 1022.3
20260830211550 20 110 0.0 11.3 0.00 0.00 0.00 59 1022.3
20260830211049 20 118 0.0 1.6 0.00 0.00 0.00 58 1022.3
20260830210545 20 109 9.7 12.9 0.00 0.00 0.00 59 1022.3
20260830210043 19 190 6.4 12.9 0.00 0.00 0.00 61 1022.3
20260830205541 18 157 8.0 9.7 0.00 0.00 0.00 64 1022.3
20260830205037 18 154 6.4 11.3 0.00 0.00 0.00 64 1022.3
20260830204536 18 159 11.3 12.9 0.00 0.00 0.00 65 1022.3
20260830204036 18 251 1.6 6.4 0.00 0.00 0.00 67 1022.3
20260830203532 17 184 8.0 14.5 0.00 0.00 0.00 68 1022.3
20260830203032 18 99 1.6 4.8 0.00 0.00 0.00 66 1022.3
20260830202527 17 115 6.4 12.9 0.00 0.00 0.00 68 1022.3
20260830202023 18 117 4.8 9.7 0.00 0.00 0.00 64 1022.3
20260830201522 18 100 4.8 6.4 0.00 0.00 0.00 65 1022.3
20260830201017 19 186 6.4 11.3 0.00 0.00 0.00 64 1022.3
20260830200512 20 160 8.0 14.5 0.00 0.00 0.00 61 1022.3
20260830200011 18 156 6.4 11.3 0.00 0.00 0.00 66 1022.3
20260830195507 18 125 1.6 4.8 0.00 0.00 0.00 68 1022.3
20260830195005 17 179 9.7 12.9 0.00 0.00 0.00 70 1022.3
20260830194504 18 87 11.3 17.7 0.00 0.00 0.00 67 1022.3
20260830194004 18 161 3.2 11.3 0.00 0.00 0.00 66 1022.3
20260830193503 18 156 6.4 12.9 0.00 0.00 0.00 67 1022.6
20260830192959 18 128 0.0 6.4 0.00 0.00 0.00 66 1022.3
20260830192455 18 135 3.2 9.7 0.00 0.00 0.00 65 1022.6
20260830191950 18 108 1.6 9.7 0.00 0.00 0.00 67 1022.3
20260830191449 18 131 1.6 3.2 0.00 0.00 0.00 67 1022.6
20260830190940 18 16 1.6 3.2 0.00 0.00 0.00 68 1022.3
20260830190435 17 136 3.2 6.4 0.00 0.00 0.00 69 1022.3
20260830185934 18 103 0.0 3.2 0.00 0.00 0.00 68 1022.6
20260830185429 18 90 1.6 11.3 0.00 0.00 0.00 69 1022.6
20260830184925 18 169 1.6 4.8 0.00 0.00 0.00 69 1022.6
20260830184424 17 107 0.0 3.2 0.00 0.00 0.00 73 1022.6
20260830183923 16 257 3.2 4.8 0.00 0.00 0.00 74 1022.6
20260830183418 16 115 3.2 4.8 0.00 0.00 0.00 75 1022.6
20260830182914 17 106 0.0 1.6 0.00 0.00 0.00 74 1022.9
20260830182409 17 102 1.6 3.2 0.00 0.00 0.00 72 1022.6
20260830181906 17 101 0.0 3.2 0.00 0.00 0.00 73 1022.6
20260830181401 17 90 1.6 3.2 0.00 0.00 0.00 73 1022.6
20260830180900 17 105 1.6 3.2 0.00 0.00 0.00 72 1022.6
20260830180355 17 99 1.6 1.6 0.00 0.00 0.00 71 1022.6
20260830175854 17 120 0.0 3.2 0.00 0.00 0.00 73 1022.6
20260830175348 17 115 4.8 6.4 0.00 0.00 0.00 74 1022.3
20260830174849 17 171 1.6 11.3 0.00 0.00 0.00 73 1022.3
20260830174344 17 97 1.6 1.6 0.00 0.00 0.00 73 1022.3
20260830173839 16 97 1.6 3.2 0.00 0.00 0.00 74 1022.3
20260830173334 17 93 3.2 3.2 0.00 0.00 0.00 74 1022.3
20260830172830 17 163 3.2 9.7 0.00 0.00 0.00 74 1022.3
20260830172327 17 113 1.6 3.2 0.00 0.00 0.00 73 1022.3
20260830171822 16 116 3.2 3.2 0.00 0.00 0.00 74 1022.3
20260830171318 16 102 1.6 3.2 0.00 0.00 0.00 73 1022.3
20260830170813 16 175 6.4 9.7 0.00 0.00 0.00 75 1022.3
20260830170312 16 190 4.8 14.5 0.00 0.00 0.00 74 1022.3
20260830165811 16 141 9.7 14.5 0.00 0.00 0.00 75 1022.3
20260830165307 15 184 6.4 11.3 0.00 0.00 0.00 77 1022.3
20260830164803 15 105 9.7 12.9 0.00 0.00 0.00 77 1022.3
20260830164259 15 181 8.0 11.3 0.00 0.00 0.00 78 1022.3
20260830163755 15 123 1.6 6.4 0.00 0.00 0.00 79 1022.3
20260830163245 15 109 3.2 9.7 0.00 0.00 0.00 79 1022.6
20260830162739 15 105 1.6 3.2 0.00 0.00 0.00 79 1022.3
20260830162236 15 119 3.2 6.4 0.00 0.00 0.00 80 1022.6
20260830161731 15 103 0.0 3.2 0.00 0.00 0.00 80 1022.3
20260830161230 14 107 0.0 9.7 0.00 0.00 0.00 80 1022.3
20260830160726 14 112 4.8 4.8 0.00 0.00 0.00 80 1022.3
20260830160226 14 106 3.2 6.4 0.00 0.00 0.00 80 1022.3
20260830155723 14 119 3.2 6.4 0.00 0.00 0.00 81 1022.3
20260830155218 14 139 0.0 4.8 0.00 0.00 0.00 81 1022.3
20260830154713 13 120 1.6 3.2 0.00 0.00 0.00 81 1022.3
20260830154208 13 117 0.0 1.6 0.00 0.00 0.00 82 1022.3
20260830153705 13 143 1.6 4.8 0.00 0.00 0.00 82 1022.6
20260830153200 13 123 3.2 3.2 0.00 0.00 0.00 83 1022.3
20260830152659 13 152 3.2 4.8 0.00 0.00 0.00 83 1022.3
20260830152158 13 173 3.2 4.8 0.00 0.00 0.00 82 1022.3
20260830151653 13 108 0.0 3.2 0.00 0.00 0.00 82 1022.3
20260830151152 13 111 1.6 4.8 0.00 0.00 0.00 82 1022.3
20260830150648 13 107 0.0 1.6 0.00 0.00 0.00 82 1022.3
20260830150143 13 132 1.6 3.2 0.00 0.00 0.00 82 1022.3
20260830145642 13 117 1.6 3.2 0.00 0.00 0.00 83 1022.3
20260830145137 13 160 3.2 3.2 0.00 0.00 0.00 83 1022.3
20260830144632 13 110 1.6 1.6 0.00 0.00 0.00 84 1022.3
20260830144128 13 119 0.0 1.6 0.00 0.00 0.00 85 1022.3
20260830143625 13 115 0.0 0.0 0.00 0.00 0.00 85 1022.3
20260830143122 13 119 0.0 1.6 0.00 0.00 0.00 86 1022.3
20260830142618 12 123 0.0 1.6 0.00 0.00 0.00 86 1022.3
20260830142112 12 114 1.6 1.6 0.00 0.00 0.00 86 1021.9
20260830141608 12 137 0.0 1.6 0.00 0.00 0.00 87 1022.3
20260830141103 12 145 0.0 1.6 0.00 0.00 0.00 87 1022.3
20260830140557 12 139 1.6 1.6 0.00 0.00 0.00 87 1022.3